Weather History for Saranac Lake, NY

Change the Weather History Date:

Thursday, January 17, 2013

  Actual Average Record
Temperature  
Mean Temperature 13 °F 13 °F  
Max Temperature 29 °F 25 °F 49 °F (1990)
Min Temperature -3 °F 1 °F -27 °F (2011)
Degree Days  
Heating Degree Days 52 52  
Month to date heating degree days 756 875  
Since 1 July heating degree days 4130 4574  
Moisture  
Dew Point 14 °F    
Average Humidity 67    
Maximum Humidity 92    
Minimum Humidity 41    
Precipitation  
Precipitation 0.02 in 0.06 in 0.90 in (1959)
Month to date precipitation 0.25 1.14  
Year to date precipitation 0.25 1.14  
Sea Level Pressure  
Sea Level Pressure 29.87 in    
Wind  
Wind Speed 6 mph (West)    
Max Wind Speed 15 mph    
Max Gust Speed 24 mph    
Visibility 5 miles    
Events Fog , Snow    
T = Trace of Precipitation, MM = Missing Value Source: NWS Daily Summary

Daily Weather History Graph

Daily Weather History Graph

Search for Another Location

Airport:

Trip Planner

Search our weather history database for the weather conditions in past years. The results will help you decide how hot, cold, wet, or windy it might be!

Date:

Astronomy

Jan. 17, 2013 Rise Set
Actual Time 7:28 AM EST 4:46 PM EST
Civil Twilight 6:56 AM EST 5:18 PM EST
Nautical Twilight 6:20 AM EST 5:54 PM EST
Astronomical Twilight 5:45 AM EST 6:28 PM EST
Moon 10:16 AM EST (1/17) 11:53 PM EST (1/17)
Length of Visible Light 10h 22m
Length of Day
9h 18m
Waxing Crescent, 37% of the Moon is Illuminated
Jan 17
Waxing Crescent
Jan 18
First Quarter
Jan 26
Full
Feb 3
Last Quarter
Feb 10
New

Hourly Weather History & Observations

Time (EST) Temp. Windchill Dew Point Humidity Pressure Visibility Wind Dir Wind Speed Gust Speed Precip Events Conditions
12:51 AM 28.9 °F 19.8 °F 23.0 °F 78% 29.75 in 10.0 mi SW 10.4 mph 21.9 mph 0.00 in   Overcast
1:22 AM 28.4 °F 18.0 °F 24.8 °F 86% 29.69 in 2.0 mi SW 12.7 mph - 0.00 in Snow Light Snow
1:39 AM 28.4 °F 18.5 °F 24.8 °F 86% 29.69 in 3.0 mi SW 11.5 mph - 0.00 in Snow Light Snow
1:45 AM 28.4 °F 17.5 °F 24.8 °F 86% 29.69 in 1.8 mi WSW 13.8 mph 19.6 mph 0.00 in Snow Light Snow
1:46 AM 28.0 °F 17.5 °F 24.1 °F 85% 29.75 in 1.8 mi SW 12.7 mph 19.6 mph 0.00 in Snow Light Snow
1:55 AM 28.4 °F 18.0 °F 24.8 °F 86% 29.69 in 3.0 mi SW 12.7 mph - 0.00 in Snow Light Snow
2:27 AM 28.4 °F 19.7 °F 24.8 °F 86% 29.71 in 2.5 mi SW 9.2 mph - 0.00 in Snow Light Snow
2:51 AM 28.0 °F 18.1 °F 24.1 °F 85% 29.77 in 2.0 mi WSW 11.5 mph 19.6 mph 0.00 in Snow Light Snow
3:07 AM 28.4 °F 18.5 °F 24.8 °F 86% 29.71 in 1.8 mi WSW 11.5 mph 18.4 mph 0.00 in Snow Light Snow
3:41 AM 28.4 °F 19.7 °F 24.8 °F 86% 29.71 in 2.0 mi WSW 9.2 mph - 0.00 in Snow Light Snow
3:51 AM 28.0 °F 19.3 °F 25.0 °F 88% 29.77 in 1.8 mi WSW 9.2 mph 18.4 mph 0.00 in Snow Light Snow
3:58 AM 28.4 °F 19.1 °F 24.8 °F 86% 29.71 in 1.2 mi WSW 10.4 mph 17.3 mph 0.00 in Snow Light Snow
4:32 AM 28.4 °F 21.2 °F 26.6 °F 93% 29.71 in 1.2 mi WSW 6.9 mph - 0.01 in Snow Light Snow
4:51 AM 28.0 °F 18.6 °F 26.1 °F 92% 29.77 in 0.8 mi WSW 10.4 mph - 0.01 in Snow Light Snow
4:54 AM 28.4 °F 20.4 °F 26.6 °F 93% 29.72 in 1.0 mi WSW 8.1 mph - 0.00 in Snow Light Snow
5:06 AM 28.4 °F 20.4 °F 24.8 °F 86% 29.72 in 1.5 mi WSW 8.1 mph - 0.00 in Snow Light Snow
5:42 AM 28.4 °F 21.2 °F 24.8 °F 86% 29.73 in 1.0 mi WSW 6.9 mph - 0.00 in Snow Light Snow
5:51 AM 28.0 °F 19.3 °F 25.0 °F 88% 29.80 in 1.0 mi WSW 9.2 mph - 0.00 in Snow Light Snow
5:58 AM 28.4 °F 20.4 °F 24.8 °F 86% 29.74 in 1.2 mi WSW 8.1 mph - 0.00 in Snow Light Snow
6:20 AM 28.4 °F 19.1 °F 24.8 °F 86% 29.74 in 1.5 mi WSW 10.4 mph 18.4 mph 0.00 in Snow Light Snow
6:51 AM 28.0 °F 20.0 °F 25.0 °F 88% 29.81 in 1.5 mi WSW 8.1 mph - 0.00 in Snow Light Snow
7:07 AM 28.4 °F 18.5 °F 24.8 °F 86% 29.76 in 3.0 mi West 11.5 mph - 0.00 in Snow Light Snow
7:10 AM 26.6 °F 16.2 °F 24.8 °F 93% 29.77 in 1.2 mi NW 11.5 mph 20.7 mph 0.01 in Snow Light Snow
7:12 AM 26.6 °F 16.2 °F 24.8 °F 93% 29.78 in 0.8 mi NW 11.5 mph 20.7 mph 0.01 in Snow Light Snow
7:17 AM 24.8 °F 14.0 °F 21.2 °F 86% 29.78 in 0.2 mi NW 11.5 mph 24.2 mph 0.01 in Fog , Snow Heavy Snow
7:22 AM 24.8 °F 14.0 °F 21.2 °F 86% 29.79 in 0.5 mi NW 11.5 mph 24.2 mph 0.01 in Fog , Snow Snow
7:33 AM 21.2 °F 8.9 °F 17.6 °F 86% 29.81 in 2.0 mi NNW 12.7 mph 24.2 mph 0.01 in Snow Light Snow
7:42 AM 19.4 °F 8.6 °F 15.8 °F 86% 29.82 in 6.0 mi NW 9.2 mph 19.6 mph 0.01 in Snow Light Snow
7:51 AM 19.0 °F 9.0 °F 14.0 °F 81% 29.90 in 8.0 mi NW 8.1 mph 17.3 mph 0.01 in Snow Light Snow
8:17 AM 17.6 °F 6.4 °F 12.2 °F 79% 29.86 in 1.8 mi NW 9.2 mph 20.7 mph 0.00 in Snow Light Snow
8:51 AM 15.1 °F 2.5 °F 10.0 °F 80% 29.97 in 1.0 mi WNW 10.4 mph 16.1 mph 0.00 in Snow Light Snow
9:04 AM 15.8 °F 3.4 °F 8.6 °F 73% 29.90 in 2.0 mi West 10.4 mph 18.4 mph 0.00 in Snow Light Snow
9:12 AM 15.8 °F 4.2 °F 8.6 °F 73% 29.91 in 6.0 mi WNW 9.2 mph 17.3 mph 0.00 in Snow Light Snow
9:51 AM 15.1 °F 5.2 °F 7.0 °F 70% 30.01 in 10.0 mi Variable 6.9 mph - 0.00 in   Overcast
10:51 AM 12.9 °F 2.6 °F 5.0 °F 71% 30.05 in 10.0 mi Variable 6.9 mph - N/A   Overcast
11:51 AM 12.0 °F 1.5 °F 1.9 °F 64% 30.05 in 10.0 mi Variable 6.9 mph - N/A   Scattered Clouds
12:51 PM 12.0 °F 2.7 °F -2.9 °F 51% 30.06 in 10.0 mi Variable 5.8 mph 16.1 mph N/A   Clear
1:51 PM 10.9 °F -0.8 °F -4.0 °F 51% 30.07 in 10.0 mi West 8.1 mph - N/A   Clear
2:51 PM 10.9 °F 4.7 °F -9.0 °F 40% 30.06 in 10.0 mi Variable 3.5 mph - N/A   Clear
3:51 PM 9.0 °F -0.9 °F -8.0 °F 46% 30.08 in 10.0 mi West 5.8 mph - N/A   Clear
4:51 PM 7.0 °F - -7.1 °F 53% 30.08 in 10.0 mi Calm Calm - N/A   Clear
5:51 PM 5.0 °F - -7.1 °F 58% 30.11 in 10.0 mi Calm Calm - N/A   Clear
6:51 PM 3.9 °F - -6.0 °F 64% 30.12 in 10.0 mi Calm Calm - N/A   Clear
8:51 PM 3.0 °F -4.4 °F -7.1 °F 63% 30.15 in 10.0 mi West 3.5 mph - N/A   Overcast
9:51 PM 1.0 °F - -8.0 °F 66% 30.15 in 10.0 mi Calm Calm - N/A   Clear
10:51 PM -0.9 °F - -8.0 °F 72% 30.13 in 10.0 mi Calm Calm - N/A   Clear
11:51 PM -2.0 °F - -7.1 °F 79% 30.14 in 10.0 mi Calm Calm - N/A   Mostly Cloudy